Regional Weather Roundup
Issued by NWS

Home | Current Version | Previous Version | Graphics & Text | Print | Product List | Glossary Off
Versions: 1 2 3 4 5 6 7 8 9 10 11 12 13 14 15 16 17 18 19 20 21 22 23 24 25 26 27 28 29 30 31 32 33 34 35 36 37 38 39 40 41 42 43 44 45 46 47 48 49 50

000
ASUS43 KTOP 240208
RWRKS

WEATHER ROUNDUP FOR KANSAS
NATIONAL WEATHER SERVICE GOODLAND KS
900 PM CDT WED APR 23 2014

NOTE:  "FAIR" INDICATES FEW OR NO CLOUDS BELOW 12,000 FEET WITH NO
SIGNIFICANT WEATHER AND/OR OBSTRUCTIONS TO VISIBILITY.

KSZ001>006-013>018-027>032-041>047-240300-
NORTHWEST KANSAS

CITY           SKY/WX    TMP DP  RH WIND       PRES   REMARKS
GOODLAND       CLOUDY    63  23  21 N29G46    29.61R
HAYS           MOCLDY   N/A N/A N/A S32G43    29.45R
HILL CITY      MOCLDY    62  53  72 N14       29.49R THUNDER
RUSSELL        CLOUDY    76  49  38 S28G43    29.46R
$$

KSZ061>065-074>080-084>089-240300-
SOUTHWEST KANSAS

CITY           SKY/WX    TMP DP  RH WIND       PRES   REMARKS
DODGE CITY     PTCLDY    71  54  54 SE28G33   29.53R
ELKHART          N/A     76  20  12 SW13        N/A
GARDEN CITY    CLEAR     72  52  49 S21G31    29.48R
GREAT BEND     CLOUDY    72  54  53 S32G44    29.48R
LIBERAL        CLEAR     72  52  49 SE22G28   29.53R
PRATT          CLOUDY    73  50  43 S20G29    29.59R
$$

KSZ066>073-081>083-090>101-240300-
SOUTHEAST KANSAS

CITY           SKY/WX    TMP DP  RH WIND       PRES   REMARKS
CHANUTE        CLOUDY    74  52  46 SE15      29.71R
COFFEYVILLE    CLOUDY    73  56  54 S12       29.72R
HUTCHINSON     CLOUDY    77  47  34 S20       29.59R
MEDICINE LODGE   N/A     76  51  41 S22G36    29.55S
NEWTON         CLOUDY    75  45  33 S21G31    29.64R
PARSONS        CLOUDY    74  53  48 SE8       29.73R
WICHITA INTL   CLOUDY    78  48  34 S28G38    29.59R
WICHITA JABRA  CLOUDY    78  51  38 S23G37    29.60R
WICHITA MCCONL CLOUDY    78  50  37 SE24G39   29.61R
WINFIELD       CLOUDY    77  52  41 S38G47    29.62F
$$

KSZ007>012-019>026-033>040-048>060-102>105-240300-
NORTHEAST KANSAS

CITY           SKY/WX    TMP DP  RH WIND       PRES   REMARKS
CONCORDIA      CLOUDY    78  44  29 S23G30    29.52R
EMPORIA        CLOUDY    74  52  46 S26G38    29.61S
LAWRENCE       CLEAR     72  47  40 SE20G26   29.64F
MANHATTAN      MOCLDY    76  51  41 S22G32    29.54F
OLATHE IND     PTCLDY    70  44  39 SE22      29.68F
OLATHE EXE     PTCLDY    70  43  37 SE21G30   29.68F
SALINA         CLOUDY    79  47  32 S22G30    29.54R
TOPEKA BILLARD PTCLDY    76  45  33 S20G32    29.61F
TOPEKA FORBES  MOCLDY    75  46  35 S21G30    29.61S
$$



USA.gov is the U.S. government's official web portal to all federal, state and local government web resources and services.